Weather History for Milton, FL

Change the Weather History Date:

Saturday, July 27, 2013

  Actual Average (KNSE) Record (KNSE)
Temperature  
Mean Temperature 80 °F -  
Max Temperature 86 °F 87 °F 96 °F (2010)
Min Temperature 75 °F 70 °F 68 °F (2000)
Cooling Degree Days 14    
Growing Degree Days 30 (Base 50)    
Moisture  
Dew Point 73 °F    
Average Humidity 84    
Maximum Humidity 94    
Minimum Humidity 67    
Precipitation  
Precipitation 0.07 in - - ()
Sea Level Pressure  
Sea Level Pressure 29.92 in    
Wind  
Wind Speed 2 mph (SSW)    
Max Wind Speed 12 mph    
Max Gust Speed -    
Visibility 9 miles    
Events Rain , Thunderstorm    
Averages and records for this station are not official NWS values.
T = Trace of Precipitation, MM = Missing Value Source: NWS Daily Summary

Daily Weather History Graph

Daily Weather History Graph

Search for Another Location

Airport:

Trip Planner

Search our weather history database for the weather conditions in past years. The results will help you decide how hot, cold, wet, or windy it might be!

Date:

Astronomy

Jul. 27, 2013 Rise Set
Actual Time 6:02 AM CDT 7:45 PM CDT
Civil Twilight 5:36 AM CDT 8:12 PM CDT
Nautical Twilight 5:04 AM CDT 8:44 PM CDT
Astronomical Twilight 4:31 AM CDT 9:17 PM CDT
Moon 11:02 PM CDT (7/27) 11:15 AM CDT (7/27)
Length of Visible Light 14h 35m
Length of Day
13h 43m
Waning Gibbous, 70% of the Moon is Illuminated
Jul 27
Waning Gibbous
Jul 29
Last Quarter
Aug 6
New
Aug 14
First Quarter
Aug 20
Full

Hourly Weather History & Observations

Time (CDT) Temp. Heat Index Dew Point Humidity Pressure Visibility Wind Dir Wind Speed Gust Speed Precip Events Conditions
12:56 AM 78.1 °F - 73.9 °F 87% 29.93 in 10.0 mi Calm Calm - N/A   Clear
1:56 AM 77.0 °F - 73.9 °F 90% 29.92 in 9.0 mi Calm Calm - N/A   Clear
2:56 AM 77.0 °F - 73.0 °F 88% 29.91 in 10.0 mi Calm Calm - N/A   Clear
3:56 AM 75.9 °F - 73.0 °F 91% 29.91 in 7.0 mi Calm Calm - N/A   Clear
4:56 AM 75.0 °F - 73.0 °F 94% 29.91 in 6.0 mi Calm Calm - N/A   Clear
5:56 AM 75.9 °F - 73.0 °F 91% 29.92 in 7.0 mi Calm Calm - N/A   Clear
6:56 AM 75.9 °F - 73.0 °F 91% 29.93 in 5.0 mi Calm Calm - N/A   Clear
7:56 AM 80.1 °F 85.1 °F 75.0 °F 85% 29.94 in 8.0 mi Calm Calm - N/A   Clear
8:56 AM 82.9 °F 90.2 °F 75.0 °F 77% 29.93 in 10.0 mi WSW 3.5 mph - N/A   Clear
9:56 AM 82.0 °F 87.9 °F 73.9 °F 76% 29.93 in 10.0 mi Variable 4.6 mph - 0.00 in   Scattered Clouds
10:56 AM 84.0 °F 89.6 °F 72.0 °F 67% 29.93 in 10.0 mi West 4.6 mph - N/A   Clear
11:43 AM 84.2 °F 90.9 °F 73.4 °F 70% 29.98 in 10.0 mi Calm Calm - N/A Thunderstorm Thunderstorm
11:56 AM 84.0 °F 91.9 °F 75.0 °F 74% 29.93 in 10.0 mi Variable 3.5 mph - N/A Thunderstorm Thunderstorm
12:27 PM 82.4 °F 89.5 °F 75.2 °F 79% 29.98 in 10.0 mi NW 11.5 mph - N/A   Scattered Clouds
12:56 PM 75.9 °F - 69.1 °F 79% 29.94 in 10.0 mi NW 5.8 mph - 0.00 in Rain Light Rain
1:56 PM 78.1 °F - 70.0 °F 76% 29.93 in 10.0 mi Calm Calm - 0.00 in Thunderstorm Thunderstorm
2:21 PM 78.8 °F - 71.6 °F 78% 29.96 in 10.0 mi Calm Calm - N/A   Scattered Clouds
2:56 PM 78.1 °F - 72.0 °F 81% 29.91 in 10.0 mi NW 3.5 mph - 0.01 in Rain Light Rain
3:56 PM 77.0 °F - 71.1 °F 82% 29.90 in 10.0 mi Calm Calm - 0.01 in   Mostly Cloudy
4:56 PM 79.0 °F - 70.0 °F 74% 29.89 in 10.0 mi East 3.5 mph - N/A   Clear
5:56 PM 78.1 °F - 73.0 °F 84% 29.89 in 10.0 mi SE 3.5 mph - N/A   Overcast
6:56 PM 78.1 °F - 73.0 °F 84% 29.89 in 10.0 mi SSE 4.6 mph - N/A   Clear
7:56 PM 77.0 °F - 73.9 °F 90% 29.91 in 10.0 mi Calm Calm - N/A   Scattered Clouds
8:56 PM 75.9 °F - 73.9 °F 94% 29.91 in 10.0 mi Calm Calm - 0.01 in   Scattered Clouds
9:41 PM 77.0 °F - 73.4 °F 89% 29.96 in 10.0 mi SSE 4.6 mph - N/A Thunderstorm Thunderstorm
9:56 PM 77.0 °F - 73.9 °F 90% 29.91 in 9.0 mi South 4.6 mph - 0.00 in Rain Light Rain
10:56 PM 75.0 °F - 73.0 °F 94% 29.91 in 10.0 mi South 5.8 mph - 0.04 in   Overcast
11:56 PM 75.0 °F - 72.0 °F 90% 29.90 in 10.0 mi South 3.5 mph - 0.00 in Rain Light Rain